| time (UTC) | temp F | wind direction | speed knots | gust knots | rain 1hr in | rain 24hr in | rain mn in | humidity % | barometer mb |
| 20260510150032 | 68 | 178 | 0.9 | 3.5 | 0.00 | 0.01 | 0.00 | 71 | 1013.5 |
| 20260510145504 | 67 | 121 | 0.0 | 3.5 | 0.00 | 0.01 | 0.00 | 72 | 1013.5 |
| 20260510145004 | 67 | 92 | 0.9 | 3.5 | 0.00 | 0.01 | 0.00 | 73 | 1013.4 |
| 20260510144517 | 67 | 95 | 0.9 | 5.2 | 0.00 | 0.01 | 0.00 | 73 | 1013.3 |
| 20260510144005 | 67 | 83 | 1.7 | 5.2 | 0.00 | 0.01 | 0.00 | 73 | 1013.3 |
| 20260510143507 | 68 | 98 | 1.7 | 5.2 | 0.00 | 0.01 | 0.00 | 73 | 1013.3 |
| 20260510143024 | 68 | 94 | 1.7 | 3.5 | 0.00 | 0.01 | 0.00 | 74 | 1013.1 |
| 20260510142512 | 67 | 159 | 0.0 | 4.3 | 0.00 | 0.01 | 0.00 | 76 | 1013.1 |
| 20260510142013 | 66 | 97 | 0.9 | 4.3 | 0.00 | 0.01 | 0.00 | 75 | 1013.3 |
| 20260510141526 | 66 | 98 | 0.0 | 2.6 | 0.00 | 0.01 | 0.00 | 77 | 1013.4 |
| 20260510140506 | 65 | 167 | 0.0 | 1.7 | 0.00 | 0.01 | 0.00 | 78 | 1013.4 |
| 20260510140021 | 65 | 236 | 0.0 | 1.7 | 0.00 | 0.01 | 0.00 | 78 | 1013.3 |
| 20260510135509 | 64 | 266 | 0.0 | 1.7 | 0.00 | 0.01 | 0.00 | 78 | 1013.4 |
| 20260510135014 | 64 | 200 | 0.0 | 1.7 | 0.00 | 0.01 | 0.00 | 79 | 1013.4 |
| 20260510134525 | 64 | 254 | 0.0 | 1.7 | 0.00 | 0.01 | 0.00 | 79 | 1013.3 |
| 20260510134011 | 64 | 256 | 0.0 | 1.7 | 0.00 | 0.01 | 0.00 | 78 | 1013.2 |
| 20260510133504 | 65 | 243 | 0.0 | 1.7 | 0.00 | 0.01 | 0.00 | 79 | 1013.2 |
| 20260510133012 | 65 | 205 | 0.9 | 1.7 | 0.00 | 0.01 | 0.00 | 78 | 1013.2 |
| 20260510132506 | 65 | 186 | 0.0 | 1.7 | 0.00 | 0.01 | 0.00 | 79 | 1013.3 |
| 20260510132009 | 65 | 220 | 0.0 | 1.7 | 0.00 | 0.01 | 0.00 | 77 | 1013.3 |
| 20260510131526 | 65 | 224 | 0.0 | 1.7 | 0.00 | 0.01 | 0.00 | 76 | 1013.4 |
| 20260510131008 | 65 | 227 | 0.0 | 1.7 | 0.00 | 0.01 | 0.00 | 76 | 1013.4 |
| 20260510130510 | 64 | 270 | 0.0 | 1.7 | 0.00 | 0.01 | 0.00 | 77 | 1013.5 |
| 20260510130027 | 64 | 25 | 0.0 | 1.7 | 0.00 | 0.01 | 0.00 | 78 | 1013.6 |
| 20260510125504 | 64 | 118 | 0.0 | 1.7 | 0.00 | 0.01 | 0.00 | 79 | 1013.6 |
| 20260510124526 | 63 | 352 | 0.0 | 1.7 | 0.00 | 0.01 | 0.00 | 84 | 1013.6 |
| 20260510124010 | 62 | 5 | 0.0 | 1.7 | 0.00 | 0.01 | 0.00 | 84 | 1013.8 |
| 20260510123508 | 61 | 10 | 0.0 | 1.7 | 0.00 | 0.01 | 0.00 | 86 | 1013.7 |
| 20260510123025 | 60 | 340 | 0.0 | 1.7 | 0.00 | 0.01 | 0.00 | 87 | 1013.8 |
| 20260510122512 | 59 | 17 | 0.0 | 1.7 | 0.00 | 0.01 | 0.00 | 90 | 1013.8 |
| 20260510122010 | 58 | 305 | 0.0 | 1.7 | 0.00 | 0.01 | 0.00 | 91 | 1013.7 |
| 20260510121513 | 57 | 279 | 0.0 | 1.7 | 0.00 | 0.01 | 0.00 | 93 | 1013.6 |
| 20260510121007 | 57 | 336 | 0.0 | 0.9 | 0.00 | 0.01 | 0.00 | 93 | 1013.7 |
| 20260510120509 | 56 | 335 | 0.0 | 0.9 | 0.00 | 0.01 | 0.00 | 94 | 1013.6 |
| 20260510120013 | 55 | 212 | 0.0 | 0.9 | 0.00 | 0.01 | 0.00 | 95 | 1013.6 |
| 20260510115503 | 55 | 271 | 0.0 | 0.0 | 0.00 | 0.01 | 0.00 | 95 | 1013.6 |
| 20260510115003 | 55 | 271 | 0.0 | 0.0 | 0.00 | 0.01 | 0.00 | 95 | 1013.6 |
| 20260510114516 | 54 | 306 | 0.0 | 0.0 | 0.00 | 0.01 | 0.00 | 95 | 1013.5 |
| 20260510114003 | 54 | 306 | 0.0 | 0.0 | 0.00 | 0.01 | 0.00 | 1013.4 | |
| 20260510113504 | 53 | 306 | 0.0 | 0.0 | 0.00 | 0.01 | 0.00 | 95 | 1013.3 |
| 20260510111003 | 51 | 311 | 0.0 | 0.0 | 0.00 | 0.01 | 0.00 | 94 | 1013.0 |
| 20260510110017 | 50 | 311 | 0.0 | 0.0 | 0.00 | 0.01 | 0.00 | 93 | 1012.9 |
| 20260510105510 | 0 | 0.0 | 0.0 | 0.00 | 0.01 | 0.00 | 1012.6 | ||
| 20260510105010 | 0 | 0.0 | 0.0 | 0.00 | 0.01 | 0.00 | 1012.4 | ||
| 20260510104528 | 0 | 0.0 | 0.0 | 0.00 | 0.01 | 0.00 | 1012.3 | ||
| 20260510104010 | 0 | 0.0 | 0.0 | 0.00 | 0.01 | 0.00 | 1012.1 | ||
| 20260510103507 | 0 | 0.0 | 0.0 | 0.00 | 0.01 | 0.00 | 1012.0 | ||
| 20260510103028 | 0 | 0.0 | 0.0 | 0.00 | 0.01 | 0.00 | 1012.0 | ||
| 20260510102510 | 0 | 0.0 | 0.0 | 0.00 | 0.01 | 0.00 | 1011.9 | ||
| 20260510102011 | 0 | 0.0 | 0.0 | 0.00 | 0.01 | 0.00 | 1012.0 | ||
| 20260510101527 | 0 | 0.0 | 0.0 | 0.00 | 0.01 | 0.00 | 1011.9 | ||
| 20260510101011 | 0 | 0.0 | 0.0 | 0.00 | 0.01 | 0.00 | 1011.8 | ||
| 20260510100509 | 0 | 0.0 | 0.0 | 0.00 | 0.01 | 0.00 | 1011.9 | ||
| 20260510100027 | 0 | 0.0 | 0.0 | 0.00 | 0.01 | 0.00 | 1011.9 | ||
| 20260510095516 | 0 | 0.0 | 0.0 | 0.00 | 0.01 | 0.00 | 1012.0 | ||
| 20260510095012 | 0 | 0.0 | 0.0 | 0.00 | 0.01 | 0.00 | 1012.0 | ||
| 20260510094542 | 0 | 0.0 | 0.0 | 0.00 | 0.01 | 0.00 | 1012.0 | ||
| 20260510094012 | 0 | 0.0 | 0.0 | 0.00 | 0.01 | 0.00 | 1012.0 | ||
| 20260510093510 | 0 | 0.0 | 0.0 | 0.00 | 0.01 | 0.00 | 1012.0 | ||
| 20260510093033 | 0 | 0.0 | 0.0 | 0.00 | 0.01 | 0.00 | 1012.0 | ||
| 20260510092515 | 0 | 0.0 | 0.0 | 0.00 | 0.01 | 0.00 | 1012.0 | ||
| 20260510092011 | 0 | 0.0 | 0.0 | 0.00 | 0.01 | 0.00 | 1011.8 | ||
| 20260510091533 | 0 | 0.0 | 0.0 | 0.00 | 0.01 | 0.00 | 1011.7 | ||
| 20260510091010 | 0 | 0.0 | 0.0 | 0.00 | 0.01 | 0.00 | 1011.8 | ||
| 20260510090510 | 0 | 0.0 | 0.0 | 0.00 | 0.01 | 0.00 | 1011.7 | ||
| 20260510090028 | 0 | 0.0 | 0.0 | 0.00 | 0.01 | 0.00 | 1011.6 | ||
| 20260510085512 | 0 | 0.0 | 0.0 | 0.00 | 0.01 | 0.00 | 1011.5 | ||
| 20260510085010 | 0 | 0.0 | 0.0 | 0.00 | 0.01 | 0.00 | 1011.5 | ||
| 20260510084527 | 0 | 0.0 | 0.0 | 0.00 | 0.01 | 0.00 | 1011.3 | ||
| 20260510084011 | 0 | 0.0 | 0.0 | 0.00 | 0.01 | 0.00 | 1011.3 | ||
| 20260510083511 | 0 | 0.0 | 0.0 | 0.00 | 0.01 | 0.00 | 1011.3 | ||
| 20260510083047 | 0 | 0.0 | 0.0 | 0.00 | 0.01 | 0.00 | 1011.2 | ||
| 20260510082509 | 0 | 0.0 | 0.0 | 0.00 | 0.01 | 0.00 | 1011.1 | ||
| 20260510082013 | 0 | 0.0 | 0.0 | 0.00 | 0.01 | 0.00 | 1011.0 | ||
| 20260510081527 | 0 | 0.0 | 0.0 | 0.00 | 0.01 | 0.00 | 1011.0 | ||
| 20260510081008 | 0 | 0.0 | 0.0 | 0.00 | 0.01 | 0.00 | 1010.9 | ||
| 20260510080509 | 0 | 0.0 | 0.0 | 0.00 | 0.01 | 0.00 | 1010.8 | ||
| 20260510080028 | 0 | 0.0 | 0.0 | 0.00 | 0.01 | 0.00 | 1010.8 | ||
| 20260510075509 | 0 | 0.0 | 0.0 | 0.00 | 0.01 | 0.00 | 1010.7 | ||
| 20260510075012 | 0 | 0.0 | 0.0 | 0.00 | 0.01 | 0.00 | 1010.6 | ||
| 20260510074529 | 0 | 0.0 | 0.0 | 0.00 | 0.01 | 0.00 | 1010.6 | ||
| 20260510074017 | 0 | 0.0 | 0.0 | 0.00 | 0.01 | 0.00 | 1010.6 | ||
| 20260510073509 | 0 | 0.0 | 0.0 | 0.00 | 0.01 | 0.00 | 1010.6 | ||
| 20260510073033 | 0 | 0.0 | 0.0 | 0.00 | 0.01 | 0.00 | 1010.6 | ||
| 20260510072514 | 0 | 0.0 | 0.0 | 0.00 | 0.01 | 0.00 | 1010.6 | ||
| 20260510072011 | 0 | 0.0 | 0.0 | 0.00 | 0.01 | 0.00 | 1010.6 | ||
| 20260510071536 | 0 | 0.0 | 0.0 | 0.00 | 0.01 | 0.00 | 1010.6 | ||
| 20260510071011 | 0 | 0.0 | 0.0 | 0.00 | 0.01 | 0.00 | 1010.4 | ||
| 20260510070509 | 0 | 0.0 | 0.0 | 0.00 | 0.01 | 0.00 | 1010.5 | ||
| 20260510070028 | 0 | 0.0 | 0.0 | 0.00 | 0.01 | 0.00 | 1010.5 | ||
| 20260510065508 | 0 | 0.0 | 0.0 | 0.00 | 0.01 | 0.00 | 1010.5 | ||
| 20260510065012 | 0 | 0.0 | 0.0 | 0.00 | 0.01 | 0.00 | 1010.5 | ||
| 20260510064525 | 0 | 0.0 | 0.0 | 0.00 | 0.01 | 0.00 | 1010.4 | ||
| 20260510064010 | 0 | 0.0 | 0.0 | 0.00 | 0.01 | 0.00 | 1010.3 | ||
| 20260510063513 | 0 | 0.0 | 0.0 | 0.00 | 0.01 | 0.00 | 1010.3 | ||
| 20260510063027 | 0 | 0.0 | 0.0 | 0.00 | 0.01 | 0.00 | 1010.3 | ||
| 20260510062514 | 0 | 0.0 | 0.0 | 0.00 | 0.01 | 0.00 | 1010.3 | ||
| 20260510062012 | 53 | 0.0 | 0.0 | 0.00 | 0.01 | 0.00 | 91 | 1010.3 | |
| 20260510061534 | 53 | 307 | 0.0 | 0.0 | 0.00 | 0.01 | 0.00 | 91 | 1010.3 |
| 20260510061008 | 53 | 307 | 0.0 | 0.0 | 0.00 | 0.01 | 0.00 | 91 | 1010.3 |
| 20260510060512 | 53 | 307 | 0.0 | 0.0 | 0.00 | 0.01 | 0.00 | 91 | 1010.3 |
| 20260510060034 | 53 | 307 | 0.0 | 0.9 | 0.00 | 0.01 | 0.00 | 91 | 1010.3 |
| 20260510055506 | 54 | 307 | 0.0 | 0.9 | 0.00 | 0.01 | 0.00 | 91 | 1010.3 |
| 20260510055011 | 54 | 308 | 0.0 | 0.0 | 0.00 | 0.01 | 0.00 | 91 | 1010.3 |
| 20260510054535 | 54 | 284 | 0.0 | 0.0 | 0.00 | 0.01 | 0.00 | 91 | 1010.4 |
| 20260510054016 | 54 | 9 | 0.0 | 0.0 | 0.00 | 0.01 | 0.00 | 91 | 1010.3 |
| 20260510053511 | 54 | 9 | 0.0 | 0.0 | 0.00 | 0.01 | 0.00 | 91 | 1010.4 |
| 20260510053026 | 54 | 9 | 0.0 | 0.0 | 0.00 | 0.01 | 0.00 | 1010.5 | |
| 20260510052509 | 54 | 9 | 0.0 | 0.0 | 0.00 | 0.01 | 0.00 | 1010.4 | |
| 20260510052006 | 54 | 9 | 0.0 | 0.0 | 0.00 | 0.01 | 0.00 | 1010.4 | |
| 20260510051521 | 54 | 9 | 0.0 | 0.0 | 0.00 | 0.01 | 0.00 | 1010.5 | |
| 20260510051007 | 54 | 9 | 0.0 | 0.0 | 0.00 | 0.01 | 0.00 | 1010.4 | |
| 20260510045005 | 55 | 9 | 0.0 | 0.0 | 0.00 | 0.01 | 0.00 | 90 | 1010.7 |
| 20260510044504 | 55 | 9 | 0.0 | 0.0 | 0.00 | 0.01 | 0.00 | 90 | 1010.7 |
| 20260510044001 | 55 | 9 | 0.0 | 0.0 | 0.00 | 0.01 | 0.00 | 90 | 1010.6 |
| 20260510043503 | 55 | 9 | 0.0 | 0.0 | 0.00 | 0.01 | 0.00 | 90 | 1010.6 |
| 20260510043005 | 55 | 9 | 0.0 | 0.0 | 0.00 | 0.01 | 0.00 | 90 | 1010.6 |
| 20260510042505 | 55 | 9 | 0.0 | 0.0 | 0.00 | 0.01 | 0.00 | 89 | 1010.5 |
| 20260510042005 | 55 | 9 | 0.0 | 0.0 | 0.00 | 0.01 | 0.00 | 89 | 1010.5 |
| 20260510041512 | 56 | 9 | 0.0 | 0.0 | 0.00 | 0.01 | 0.00 | 89 | 1010.5 |
| 20260510041003 | 56 | 9 | 0.0 | 0.0 | 0.00 | 0.01 | 0.00 | 89 | 1010.4 |
| 20260510040503 | 56 | 9 | 0.0 | 0.0 | 0.00 | 0.01 | 0.00 | 89 | 1010.5 |
| 20260510035502 | 56 | 9 | 0.0 | 0.0 | 0.00 | 0.01 | 0.01 | 89 | 1010.5 |
| 20260510034003 | 57 | 9 | 0.0 | 0.0 | 0.00 | 0.01 | 0.01 | 88 | 1010.3 |
| 20260510033016 | 57 | 9 | 0.0 | 0.0 | 0.00 | 0.01 | 0.01 | 88 | 1010.3 |
| 20260510032501 | 57 | 9 | 0.0 | 0.0 | 0.00 | 0.01 | 0.01 | 87 | 1010.4 |
| 20260510032003 | 57 | 9 | 0.0 | 0.0 | 0.00 | 0.01 | 0.01 | 87 | 1010.3 |
| 20260510031509 | 58 | 9 | 0.0 | 0.0 | 0.00 | 0.01 | 0.01 | 87 | 1010.2 |
| 20260510031006 | 58 | 9 | 0.0 | 0.0 | 0.00 | 0.01 | 0.01 | 87 | 1010.1 |
| 20260510030503 | 58 | 9 | 0.0 | 0.0 | 0.00 | 0.01 | 0.01 | 87 | 1010.2 |
| 20260510030017 | 58 | 9 | 0.0 | 0.0 | 0.00 | 0.01 | 0.01 | 87 | 1010.2 |
| 20260510025508 | 58 | 9 | 0.0 | 0.0 | 0.00 | 0.01 | 0.01 | 87 | 1010.1 |
| 20260510025011 | 58 | 9 | 0.0 | 0.0 | 0.00 | 0.01 | 0.01 | 86 | 1010.1 |
| 20260510024001 | 59 | 9 | 0.0 | 0.0 | 0.00 | 0.01 | 0.01 | 86 | 1010.1 |
| 20260510023503 | 59 | 9 | 0.0 | 0.0 | 0.00 | 0.01 | 0.01 | 86 | 1010.1 |
| 20260510022504 | 59 | 9 | 0.0 | 0.0 | 0.00 | 0.01 | 0.01 | 86 | 1010.3 |
| 20260510022003 | 59 | 9 | 0.0 | 0.0 | 0.00 | 0.01 | 0.01 | 85 | 1010.2 |
| 20260510020511 | 60 | 9 | 0.0 | 1.7 | 0.00 | 0.01 | 0.01 | 85 | 1010.2 |
| 20260510020005 | 60 | 28 | 0.0 | 0.0 | 0.00 | 0.01 | 0.01 | 84 | 1010.1 |
| 20260510015503 | 60 | 28 | 0.0 | 0.0 | 0.00 | 0.01 | 0.01 | 85 | 1010.0 |
| 20260510015003 | 60 | 28 | 0.0 | 0.0 | 0.00 | 0.01 | 0.01 | 84 | 1010.0 |
| 20260510014509 | 60 | 28 | 0.0 | 0.0 | 0.00 | 0.01 | 0.01 | 84 | 1009.9 |
| 20260510014004 | 60 | 28 | 0.0 | 0.0 | 0.00 | 0.01 | 0.01 | 84 | 1009.9 |
| 20260510013508 | 60 | 28 | 0.0 | 0.0 | 0.00 | 0.01 | 0.01 | 84 | 1009.9 |
| 20260510013017 | 60 | 28 | 0.0 | 0.0 | 0.00 | 0.01 | 0.01 | 84 | 1009.8 |
| 20260510012509 | 60 | 28 | 0.0 | 0.0 | 0.00 | 0.01 | 0.01 | 83 | 1009.8 |
| 20260510012003 | 60 | 28 | 0.0 | 0.0 | 0.00 | 0.01 | 0.01 | 83 | 1009.8 |
| 20260510011508 | 61 | 28 | 0.0 | 0.0 | 0.00 | 0.01 | 0.01 | 82 | 1009.7 |
| 20260510011004 | 61 | 28 | 0.0 | 0.0 | 0.00 | 0.01 | 0.01 | 82 | 1009.7 |
| 20260510010504 | 61 | 28 | 0.0 | 1.7 | 0.00 | 0.01 | 0.01 | 82 | 1009.7 |
| 20260510005505 | 61 | 20 | 0.0 | 1.7 | 0.00 | 0.01 | 0.01 | 81 | 1009.6 |
| 20260510005004 | 62 | 195 | 0.0 | 0.0 | 0.00 | 0.01 | 0.01 | 80 | 1009.6 |
| 20260510004004 | 62 | 121 | 0.0 | 0.0 | 0.00 | 0.01 | 0.01 | 79 | 1009.4 |
| 20260510003503 | 62 | 121 | 0.0 | 0.0 | 0.00 | 0.01 | 0.01 | 79 | 1009.3 |
| 20260510003016 | 63 | 121 | 0.0 | 0.0 | 0.00 | 0.01 | 0.01 | 79 | 1009.4 |
| 20260510002005 | 63 | 121 | 0.0 | 0.0 | 0.00 | 0.01 | 0.01 | 77 | 1009.3 |
| 20260510001521 | 63 | 121 | 0.0 | 0.0 | 0.00 | 0.01 | 0.01 | 77 | 1009.3 |
| 20260510001010 | 64 | 121 | 0.0 | 0.0 | 0.00 | 0.01 | 0.01 | 76 | 1009.3 |
| 20260510000505 | 64 | 121 | 0.0 | 0.0 | 0.00 | 0.01 | 0.01 | 76 | 1009.2 |
| 20260510000004 | 64 | 121 | 0.0 | 0.0 | 0.00 | 0.01 | 0.01 | 76 | 1009.2 |
| 20260509235504 | 64 | 122 | 0.0 | 0.0 | 0.00 | 0.01 | 0.01 | 75 | 1009.2 |
| 20260509235004 | 65 | 122 | 0.0 | 0.0 | 0.00 | 0.01 | 0.01 | 75 | 1009.2 |
| 20260509234523 | 65 | 122 | 0.0 | 0.9 | 0.00 | 0.01 | 0.01 | 74 | 1009.1 |
| 20260509234004 | 65 | 121 | 0.0 | 1.7 | 0.00 | 0.01 | 0.01 | 73 | 1009.1 |
| 20260509233505 | 66 | 101 | 0.0 | 1.7 | 0.00 | 0.01 | 0.01 | 71 | 1009.0 |
| 20260509232506 | 66 | 108 | 0.0 | 0.0 | 0.00 | 0.01 | 0.01 | 70 | 1008.9 |
| 20260509232002 | 66 | 108 | 0.0 | 0.9 | 0.00 | 0.01 | 0.01 | 69 | 1008.9 |
| 20260509231512 | 67 | 108 | 0.0 | 1.7 | 0.00 | 0.01 | 0.01 | 69 | 1008.8 |
| 20260509231004 | 67 | 103 | 0.0 | 1.7 | 0.00 | 0.01 | 0.01 | 68 | 1008.9 |
| 20260509230011 | 67 | 106 | 0.0 | 0.9 | 0.00 | 0.01 | 0.01 | 66 | 1008.8 |
| 20260509225507 | 68 | 95 | 0.0 | 1.7 | 0.00 | 0.01 | 0.01 | 69 | 1008.8 |
| 20260509225006 | 68 | 102 | 0.0 | 1.7 | 0.00 | 0.01 | 0.01 | 68 | 1008.7 |
| 20260509224524 | 68 | 70 | 0.0 | 0.9 | 0.00 | 0.01 | 0.01 | 68 | 1008.8 |
| 20260509224003 | 68 | 24 | 0.0 | 1.7 | 0.00 | 0.01 | 0.01 | 67 | 1009.0 |
| 20260509223506 | 68 | 26 | 0.0 | 1.7 | 0.00 | 0.01 | 0.01 | 67 | 1009.0 |
| 20260509223011 | 68 | 11 | 0.0 | 1.7 | 0.00 | 0.01 | 0.01 | 67 | 1008.9 |
| 20260509222505 | 68 | 336 | 0.0 | 1.7 | 0.00 | 0.01 | 0.01 | 67 | 1008.9 |
| 20260509222004 | 68 | 87 | 0.0 | 1.7 | 0.00 | 0.01 | 0.01 | 67 | 1008.9 |
| 20260509221516 | 68 | 349 | 0.0 | 1.7 | 0.00 | 0.01 | 0.01 | 67 | 1008.9 |
| 20260509221010 | 68 | 5 | 0.0 | 1.7 | 0.00 | 0.01 | 0.01 | 67 | 1008.9 |
| 20260509220510 | 68 | 9 | 0.0 | 1.7 | 0.00 | 0.01 | 0.01 | 67 | 1009.0 |
| 20260509220028 | 68 | 22 | 0.0 | 3.5 | 0.00 | 0.01 | 0.01 | 66 | 1008.9 |
| 20260509215506 | 69 | 12 | 0.9 | 3.5 | 0.00 | 0.01 | 0.01 | 66 | 1008.9 |
| 20260509215005 | 69 | 352 | 0.0 | 1.7 | 0.00 | 0.01 | 0.01 | 68 | 1008.9 |
| 20260509214009 | 69 | 5 | 0.9 | 2.6 | 0.00 | 0.01 | 0.01 | 68 | 1009.0 |
| 20260509213023 | 69 | 25 | 0.9 | 1.7 | 0.00 | 0.01 | 0.01 | 68 | 1008.9 |
| 20260509212510 | 69 | 111 | 0.0 | 1.7 | 0.00 | 0.01 | 0.01 | 69 | 1008.9 |
| 20260509212014 | 69 | 248 | 0.0 | 1.7 | 0.00 | 0.01 | 0.01 | 68 | 1008.9 |
| 20260509211507 | 68 | 93 | 0.0 | 1.7 | 0.00 | 0.01 | 0.01 | 70 | 1008.8 |
| 20260509211003 | 68 | 101 | 0.0 | 2.6 | 0.00 | 0.01 | 0.01 | 70 | 1008.7 |
| 20260509210507 | 68 | 103 | 0.9 | 3.5 | 0.00 | 0.01 | 0.01 | 69 | 1008.7 |
| 20260509210021 | 68 | 90 | 0.0 | 3.5 | 0.00 | 0.01 | 0.01 | 69 | 1008.7 |
| 20260509205507 | 68 | 90 | 0.9 | 3.5 | 0.00 | 0.01 | 0.01 | 70 | 1008.7 |
| 20260509205006 | 68 | 87 | 0.9 | 3.5 | 0.00 | 0.01 | 0.01 | 70 | 1008.7 |
| 20260509204526 | 68 | 78 | 0.9 | 2.6 | 0.00 | 0.01 | 0.01 | 71 | 1008.6 |
| 20260509204011 | 68 | 89 | 0.0 | 1.7 | 0.00 | 0.01 | 0.01 | 72 | 1008.7 |
| 20260509203506 | 67 | 114 | 0.0 | 1.7 | 0.00 | 0.01 | 0.01 | 71 | 1008.8 |
| 20260509202505 | 67 | 202 | 0.9 | 1.7 | 0.00 | 0.01 | 0.01 | 75 | 1008.8 |
| 20260509200026 | 65 | 340 | 0.0 | 1.7 | 0.01 | 0.01 | 0.01 | 79 | 1009.2 |
| 20260509195504 | 65 | 302 | 0.0 | 1.7 | 0.01 | 0.01 | 0.01 | 77 | 1009.3 |
| 20260509194517 | 65 | 82 | 0.9 | 2.6 | 0.01 | 0.01 | 0.01 | 79 | 1009.4 |
| 20260509194003 | 64 | 105 | 0.0 | 1.7 | 0.01 | 0.01 | 0.01 | 80 | 1009.5 |
| 20260509193503 | 64 | 110 | 0.0 | 1.7 | 0.01 | 0.01 | 0.01 | 82 | 1009.5 |
| 20260509193005 | 64 | 34 | 0.0 | 0.9 | 0.01 | 0.01 | 0.01 | 85 | 1009.4 |
| 20260509192503 | 63 | 26 | 0.0 | 1.7 | 0.01 | 0.01 | 0.01 | 85 | 1009.4 |
| 20260509192002 | 63 | 40 | 0.0 | 1.7 | 0.01 | 0.01 | 0.01 | 85 | 1009.5 |
| 20260509191504 | 62 | 84 | 0.0 | 1.7 | 0.01 | 0.01 | 0.01 | 85 | 1009.5 |
| 20260509191007 | 62 | 94 | 0.0 | 3.5 | 0.01 | 0.01 | 0.01 | 85 | 1009.8 |
| 20260509190503 | 62 | 84 | 0.0 | 3.5 | 0.00 | 0.00 | 0.00 | 83 | 1010.1 |
| 20260509190013 | 63 | 177 | 0.0 | 1.7 | 0.00 | 0.00 | 0.00 | 83 | 1010.3 |
| 20260509185503 | 63 | 174 | 0.0 | 0.0 | 0.00 | 0.00 | 0.00 | 82 | 1010.2 |
| 20260509185004 | 63 | 174 | 0.0 | 0.0 | 0.00 | 0.00 | 0.00 | 81 | 1010.2 |
| 20260509184503 | 63 | 175 | 0.0 | 1.7 | 0.00 | 0.00 | 0.00 | 80 | 1010.2 |
| 20260509184003 | 64 | 122 | 0.0 | 1.7 | 0.00 | 0.00 | 0.00 | 78 | 1010.1 |
| 20260509183503 | 64 | 122 | 0.0 | 0.0 | 0.00 | 0.00 | 0.00 | 77 | 1010.1 |
| 20260509183004 | 64 | 86 | 0.0 | 0.9 | 0.00 | 0.00 | 0.00 | 78 | 1010.2 |
| 20260509182503 | 64 | 86 | 0.0 | 1.7 | 0.00 | 0.00 | 0.00 | 76 | 1010.2 |
| 20260509182003 | 65 | 350 | 0.0 | 1.7 | 0.00 | 0.00 | 0.00 | 73 | 1010.4 |
| 20260509181504 | 65 | 348 | 0.0 | 0.9 | 0.00 | 0.00 | 0.00 | 70 | 1010.5 |
| 20260509181004 | 65 | 346 | 0.0 | 1.7 | 0.00 | 0.00 | 0.00 | 70 | 1010.6 |
| 20260509180504 | 65 | 346 | 0.0 | 1.7 | 0.00 | 0.00 | 0.00 | 70 | 1010.6 |
| 20260509180008 | 65 | 342 | 0.0 | 1.7 | 0.00 | 0.00 | 0.00 | 70 | 1010.6 |
| 20260509175504 | 65 | 19 | 0.0 | 2.6 | 0.00 | 0.00 | 0.00 | 69 | 1010.5 |
| 20260509175004 | 65 | 5 | 0.9 | 2.6 | 0.00 | 0.00 | 0.00 | 69 | 1010.6 |
| 20260509174508 | 65 | 246 | 0.9 | 2.6 | 0.00 | 0.00 | 0.00 | 70 | 1010.6 |
| 20260509174005 | 65 | 336 | 1.7 | 2.6 | 0.00 | 0.00 | 0.00 | 70 | 1010.5 |
| 20260509173503 | 66 | 342 | 1.7 | 3.5 | 0.00 | 0.00 | 0.00 | 69 | 1010.4 |
| 20260509173006 | 66 | 296 | 0.0 | 3.5 | 0.00 | 0.00 | 0.00 | 69 | 1010.5 |
| 20260509172504 | 66 | 344 | 0.9 | 3.5 | 0.00 | 0.00 | 0.00 | 69 | 1010.5 |
| 20260509172003 | 67 | 301 | 1.7 | 3.5 | 0.00 | 0.00 | 0.00 | 68 | 1010.4 |
| 20260509171511 | 67 | 25 | 0.0 | 2.6 | 0.00 | 0.00 | 0.00 | 66 | 1010.5 |
| 20260509171005 | 67 | 281 | 0.0 | 1.7 | 0.00 | 0.00 | 0.00 | 65 | 1010.4 |
| 20260509170504 | 67 | 337 | 0.0 | 1.7 | 0.00 | 0.00 | 0.00 | 66 | 1010.6 |
| 20260509170009 | 67 | 42 | 0.0 | 1.7 | 0.00 | 0.00 | 0.00 | 65 | 1010.5 |
| 20260509165504 | 67 | 166 | 0.0 | 1.7 | 0.00 | 0.00 | 0.00 | 65 | 1010.5 |
| 20260509165002 | 67 | 61 | 0.0 | 0.9 | 0.00 | 0.00 | 0.00 | 64 | 1010.6 |
| 20260509164512 | 67 | 292 | 0.0 | 0.9 | 0.00 | 0.00 | 0.00 | 64 | 1010.6 |
| 20260509164006 | 68 | 192 | 0.0 | 1.7 | 0.00 | 0.00 | 0.00 | 63 | 1010.7 |
| 20260509163503 | 68 | 93 | 0.0 | 1.7 | 0.00 | 0.00 | 0.00 | 63 | 1010.6 |
| 20260509163007 | 68 | 209 | 0.0 | 1.7 | 0.00 | 0.00 | 0.00 | 62 | 1010.6 |
| 20260509162507 | 68 | 150 | 0.0 | 1.7 | 0.00 | 0.00 | 0.00 | 62 | 1010.6 |
| 20260509162004 | 68 | 252 | 0.0 | 0.9 | 0.00 | 0.00 | 0.00 | 62 | 1010.7 |
| 20260509161503 | 68 | 244 | 0.0 | 1.7 | 0.00 | 0.00 | 0.00 | 62 | 1010.8 |
| 20260509161006 | 68 | 221 | 0.0 | 1.7 | 0.00 | 0.00 | 0.00 | 63 | 1010.9 |
| 20260509160504 | 68 | 301 | 0.0 | 2.6 | 0.00 | 0.00 | 0.00 | 64 | 1010.9 |
| 20260509160010 | 68 | 290 | 0.0 | 2.6 | 0.00 | 0.00 | 0.00 | 64 | 1010.9 |
| 20260509155505 | 67 | 282 | 0.9 | 3.5 | 0.00 | 0.00 | 0.00 | 65 | 1010.9 |
| 20260509155003 | 67 | 90 | 0.9 | 3.5 | 0.00 | 0.00 | 0.00 | 65 | 1010.9 |
| 20260509154512 | 67 | 98 | 0.9 | 2.6 | 0.00 | 0.00 | 0.00 | 67 | 1010.9 |
| 20260509154003 | 66 | 122 | 0.0 | 1.7 | 0.00 | 0.00 | 0.00 | 66 | 1010.9 |
| 20260509153503 | 66 | 170 | 0.9 | 1.7 | 0.00 | 0.00 | 0.00 | 67 | 1011.0 |
| 20260509153010 | 66 | 198 | 0.0 | 2.6 | 0.00 | 0.00 | 0.00 | 67 | 1011.1 |
| 20260509152502 | 66 | 182 | 0.9 | 2.6 | 0.00 | 0.00 | 0.00 | 67 | 1011.2 |
| 20260509152006 | 66 | 153 | 0.0 | 2.6 | 0.00 | 0.00 | 0.00 | 68 | 1011.4 |
| 20260509151511 | 65 | 90 | 0.0 | 2.6 | 0.00 | 0.00 | 0.00 | 68 | 1011.5 |
| 20260509150503 | 65 | 284 | 0.0 | 1.7 | 0.00 | 0.00 | 0.00 | 66 | 1011.8 |